Regional Weather Roundup
Issued by NWS Little Rock, AR

Home | Current Version | Previous Version | Graphics & Text | Print | Product List | Glossary On
Versions: 1 2 3 4 5 6 7 8 9 10 11 12 13 14 15 16 17 18 19 20 21 22 23 24 25 26 27 28 29 30 31 32 33 34 35 36 37 38 39 40 41 42 43 44 45 46 47
000
ASUS44 KLZK 242005
RWRLZK

WEATHER ROUNDUP FOR ARKANSAS
NATIONAL WEATHER SERVICE LITTLE ROCK AR
200 PM CST WED DEC 24 2014

NOTE: "FAIR" INDICATES FEW OR NO CLOUDS BELOW 12,000 FEET WITH NO
SIGNIFICANT WEATHER AND/OR OBSTRUCTIONS TO VISIBILITY.

ARZ001-003-010-029-242100-
NORTHWEST ARKANSAS

CITY           SKY/WX    TMP DP  RH WIND       PRES   REMARKS
FAYETTEVILLE   CLOUDY    37  33  85 NW10      29.87S
FORT SMITH     CLOUDY    41  32  70 W16       29.92S
HARRISON       CLOUDY    37  32  82 NW13G21   29.80S
BENTONVILLE    CLOUDY    37  30  75 NW13      29.86S
ROGERS         LGT RAIN  37  34  87 W13G18    29.85S
SILOAM SPGS    CLOUDY    37  28  70 W12       29.89R
HIGHFILL       CLOUDY    37  33  85 NW10      29.85S
SPRINGDALE     CLOUDY    37  32  81 NW15G23   29.87S
$$

ARZ004-005-016-242100-
NORTH CENTRAL ARKANSAS

CITY           SKY/WX    TMP DP  RH WIND       PRES   REMARKS
BATESVILLE     CLOUDY    43  34  70 W14       29.80R
FLIPPIN        CLOUDY    41  30  65 W18G24    29.79S
MTN HOME       CLOUDY    38  34  85 NW7       29.78R
$$

ARZ040-041-242100-
WEST CENTRAL ARKANSAS

CITY           SKY/WX    TMP DP  RH WIND       PRES   REMARKS
MENA           CLOUDY    41  34  75 W15       29.91R
MOUNT IDA      CLOUDY    42  33  70 NW9       29.86R
$$

ARZ009-017-025-026-028-242100-
NORTHEAST ARKANSAS

CITY           SKY/WX    TMP DP  RH WIND       PRES   REMARKS
CORNING          N/A     43  34  70 W14G20    29.76R
JONESBORO      CLOUDY    45  35  68 W20       29.77R
NEWPORT        CLOUDY    44  36  73 W15       29.81R
WALNUT RIDGE   CLOUDY    43  32  65 W10       29.76R
BLYTHEVILLE    CLOUDY    44  36  73 W13       29.76R
$$

ARZ022-023-033-042-044-242100-
CENTRAL ARKANSAS

CITY           SKY/WX    TMP DP  RH WIND       PRES   REMARKS
LITTLE ROCK    CLOUDY    45  32  60 W16G22    29.85R
N LITTLE ROCK  CLOUDY    43  36  77 W7G18     29.85R
JACKSONVILLE   CLOUDY    44  34  67 W14       29.83R
SEARCY         LGT RAIN  44  36  73 W7        29.83R
HOT SPRINGS    CLOUDY    43  33  68 NW8G17    29.88R
RUSSELLVILLE   CLOUDY    44  33  65 W16       29.84S
CLINTON        CLOUDY    45  34  65 W9        29.84R
$$

ARZ036-242100-
EAST ARKANSAS

CITY           SKY/WX    TMP DP  RH WIND       PRES   REMARKS
WEST MEMPHIS   CLOUDY    45  35  68 W9        29.79R
$$

ARZ050-053-066-070-073-242100-
SOUTHWEST ARKANSAS

CITY           SKY/WX    TMP DP  RH WIND       PRES   REMARKS
ARKADELPHIA    MOCLDY    46  37  70 NW10      29.91R
CAMDEN         CLOUDY    48  32  53 MISG      29.90R
TEXARKANA      CLOUDY    44  32  62 W17G24    29.95R
EL DORADO      CLOUDY    46  35  65 W7        29.91S
DE QUEEN       CLOUDY    44  32  62 NW10G18   29.94S
$$

ARZ056-057-069-242100-
SOUTHEAST ARKANSAS

CITY           SKY/WX    TMP DP  RH WIND       PRES   REMARKS
PINE BLUFF     CLOUDY    45  34  65 W14       29.86R
STUTTGART      CLOUDY    45  36  70 W13       29.85R
MONTICELLO     CLOUDY    47  35  63 W8G18     29.87R

$$




USA.gov is the U.S. government's official web portal to all federal, state and local government web resources and services.